Location: Bluff Heights
(33.7692°N, 118.1592°W)
Time: 03:16:46
(UTC+00:00)

deb Explorer IX - Pass Details

Date: 01 August 2021
Orbit: 545 x 1091 km, 38.8° (Epoch: 22 September)

Event Time Altitude Azimuth Distance (km) Brightness Sun altitude
Rises 03:55:22 0° 279° (W) 3,670 ? -12.3°
Reaches altitude 10° 03:58:44 10° 262° (W) 2,799 ? -12.9°
Maximum altitude 04:03:21 19° 220° (SW) 2,272 ? -13.7°
Drops below altitude 10° 04:08:08 10° 178° (S) 2,919 ? -14.5°
Enters shadow 04:09:33 - 171° (S) 3,265 ? -14.8°
